TimeCDT,TemperatureF,Dew PointF,Humidity,Sea Level PressureIn,VisibilityMPH,Wind Direction,Wind SpeedMPH,Gust SpeedMPH,PrecipitationIn,Events,Conditions,WindDirDegrees,DateUTC
12:53 AM,61.0,52.0,72,30.01,10.0,South,6.9,-,N/A,,Clear,180,2012-10-22 05:53:00
1:53 AM,63.0,52.0,67,30.01,10.0,South,6.9,-,N/A,,Clear,180,2012-10-22 06:53:00
2:53 AM,61.0,52.0,72,30.02,10.0,South,6.9,-,N/A,,Clear,180,2012-10-22 07:53:00
4:53 AM,63.0,53.1,70,30.04,10.0,South,9.2,-,N/A,,Clear,190,2012-10-22 09:53:00
5:53 AM,60.1,53.1,78,30.05,10.0,South,9.2,-,N/A,,Clear,180,2012-10-22 10:53:00
8:53 AM,64.9,55.9,73,30.11,10.0,South,11.5,-,N/A,,Clear,180,2012-10-22 13:53:00
9:53 AM,70.0,57.0,63,30.12,10.0,SSW,13.8,-,N/A,,Clear,200,2012-10-22 14:53:00
10:53 AM,73.0,55.0,53,30.12,10.0,SSW,16.1,26.5,N/A,,Clear,200,2012-10-22 15:53:00
12:53 PM,78.1,52.0,40,30.08,10.0,SSW,15.0,25.3,N/A,,Clear,200,2012-10-22 17:53:00
1:53 PM,80.1,50.0,35,30.05,10.0,South,17.3,23.0,N/A,,Clear,180,2012-10-22 18:53:00
2:53 PM,80.1,45.0,29,30.03,10.0,SSW,12.7,24.2,N/A,,Clear,210,2012-10-22 19:53:00
3:53 PM,80.1,46.9,31,30.03,10.0,South,16.1,-,N/A,,Clear,190,2012-10-22 20:53:00
4:11 PM,80.6,48.2,32,30.03,8.0,South,11.5,19.6,N/A,,Partly Cloudy,190,2012-10-22 21:11:00
4:53 PM,79.0,48.0,34,30.03,5.0,SSW,12.7,-,N/A,,Haze,200,2012-10-22 21:53:00
5:53 PM,73.0,48.9,42,30.03,10.0,South,6.9,-,N/A,,Clear,180,2012-10-22 22:53:00
6:53 PM,66.0,48.9,54,30.04,10.0,SSE,4.6,-,N/A,,Clear,150,2012-10-22 23:53:00
7:53 PM,62.1,50.0,65,30.04,10.0,SSE,4.6,-,N/A,,Clear,160,2012-10-23 00:53:00
8:53 PM,63.0,50.0,63,30.04,10.0,SSE,3.5,-,N/A,,Clear,150,2012-10-23 01:53:00
9:53 PM,59.0,50.0,72,30.03,10.0,SE,5.8,-,N/A,,Clear,140,2012-10-23 02:53:00
10:53 PM,57.0,48.9,74,30.02,10.0,South,6.9,-,N/A,,Clear,170,2012-10-23 03:53:00
11:53 PM,61.0,51.1,70,30.01,10.0,South,8.1,-,N/A,,Clear,170,2012-10-23 04:53:00